Temperature
15 15 15 15 14 14 14 13 13 12 13 14 14 14 14 15 15 16 16 16 16 17 16 16 16 16 16 16 16 16 16 16 17 17 17 17 17 17
14 14 14 15 14 14 14 13 13 13 12 13 13 14 14 14 14 15 15 15 15 16 16 16 16 15 15 15 15 16 16 16 16 16 16 16 16 16
14 14 14 14 14 14 14 14 13 13 13 13 13 13 13 13 13 13 14 14 14 14 14 15 15 15 15 15 15 15 15 15 15 15 16 16 16 16
13 13 13 14 14 14 14 14 14 13 13 13 13 13 13 13 13 12 12 13 13 13 13 13 13 14 14 14 14 14 14 14 14 15 15 15 15 15
12 12 13 13 13 14 14 14 14 13 13 13 13 13 12 12 12 12 12 12 12 12 12 12 12 13 13 13 13 13 13 13 13 14 14 14 14 14
12 12 12 13 13 13 13 13 13 13 13 12 12 12 12 12 12 12 11 11 11 11 11 12 12 12 12 12 12 12 12 12 13 13 13 13 13 13
11 12 12 13 13 13 13 13 13 13 12 12 12 12 12 11 11 11 11 11 10 11 11 11 11 11 11 11 11 12 12 12 12 12 12 12 12 12
11 11 12 12 12 12 13 13 12 12 12 12 12 12 12 11 11 11 11 11 10 10 11 10 10 11 11 11 11 11 11 11 11 11 11 11 11 11
10 11 11 12 12 12 12 12 12 12 12 12 12 12 12 11 11 11 11 11 11 10 10 10 10 10 10 10 10 10 10 11 11 11 11 11 11 11
10 10 11 11 11 12 12 11 11 11 11 12 12 12 12 11 11 11 11 10 10 10 10 10 9 9 9 9 9 9 10 10 10 10 9 10 10 10
9 10 10 11 11 11 11 11 11 11 11 11 11 11 11 11 11 11 10 10 9 9 10 10 9 9 9 8 8 8 9 9 9 9 9 9 9 9
9 9 10 10 11 11 11 11 11 11 11 11 11 11 11 11 11 11 11 10 10 9 9 9 9 9 8 8 8 8 8 8 8 8 8 8 8 8
9 9 9 10 10 10 11 11 11 11 11 11 10 10 10 10 10 10 11 11 11 10 10 10 9 9 9 8 8 7 8 8 8 7 7 7 7 8
8 9 9 9 10 10 10 10 11 10 10 10 10 10 10 10 10 10 10 10 11 11 10 10 10 10 9 8 8 7 7 7 7 7 7 7 7 8
8 8 8 9 9 10 10 10 10 10 10 10 10 10 10 10 10 10 10 10 10 10 10 10 10 10 10 9 8 8 7 7 7 7 7 7 7 7
8 8 8 8 9 9 10 10 10 10 10 10 10 10 10 10 10 10 10 10 10 10 10 10 10 10 9 9 9 8 8 8 7 7 7 7 7 7
7 7 8 8 8 9 9 9 9 10 10 10 10 10 10 10 10 10 10 10 10 10 10 10 10 10 9 9 9 8 8 8 8 8 8 8 8 7
7 7 7 8 8 9 9 9 9 9 10 10 10 10 10 10 10 10 10 10 10 10 10 10 10 9 9 9 9 8 8 8 8 8 8 8 8 8
7 7 7 8 9 9 9 9 10 10 10 10 10 10 10 10 10 10 10 10 10 10 9 9 10 10 9 9 9 8 8 8 8 8 8 8 8 8
7 7 7 8 9 9 10 10 10 10 10 10 10 10 10 10 10 10 10 9 9 9 9 9 10 10 10 9 9 9 9 9 9 9 8 8 8 8
7 7 8 9 9 10 10 10 10 10 10 10 10 10 10 10 10 10 10 10 10 10 10 10 10 10 9 9 9 9 9 9 9 9 9 9 9 8
7 8 8 9 10 10 10 10 10 10 10 10 10 10 10 10 10 10 10 10 10 10 10 10 10 10 10 10 10 10 10 9 9 9 9 9 9 9
8 9 9 9 10 10 10 11 11 10 10 10 10 10 10 10 10 10 10 10 10 10 10 10 10 10 10 10 10 10 10 10 10 10 9 9 9 9
Wind_Speed
8 8 6 6 5 6 5 5 5 5 4 3 1 0 1 2 3 5 6 8 9 10 9 8 7 7 6 5 3 2 4 6 9 11 15 17 21 24
6 7 7 6 5 5 5 5 6 6 5 2 2 1 1 3 6 7 9 11 12 12 12 12 12 12 12 10 8 6 3 1 2 4 6 8 12 16
7 8 8 7 5 5 4 4 5 6 7 3 2 2 3 6 6 7 8 8 10 14 15 15 15 15 15 14 14 13 11 9 6 5 5 4 4 4
8 8 8 7 6 5 4 5 5 5 5 4 2 2 4 7 8 9 7 8 10 15 17 17 18 17 17 16 16 16 16 16 14 13 12 12 11 11
7 8 9 8 7 5 5 4 4 4 4 5 3 3 4 7 9 8 9 8 9 13 17 18 18 18 17 17 17 17 18 18 19 19 18 18 19 19
7 8 9 9 8 6 5 5 4 4 4 5 5 6 6 7 8 9 8 6 7 8 11 14 17 18 17 17 17 17 18 18 19 20 21 21 22 22
7 8 8 9 10 7 5 4 4 4 5 5 6 7 7 9 8 7 10 9 7 5 7 7 7 8 10 13 14 16 17 18 18 20 21 22 22 22
7 7 8 8 9 9 8 6 7 7 7 6 6 9 9 9 9 10 11 9 5 2 5 6 5 7 5 8 12 14 16 17 18 19 20 21 22 22
8 8 8 8 8 6 6 5 4 5 7 7 9 10 11 12 12 10 9 6 7 6 6 6 4 6 4 9 12 14 15 16 18 19 19 20 20 20
8 9 9 9 9 8 7 5 4 4 5 6 8 9 11 11 10 10 11 10 8 5 4 5 3 4 4 6 10 12 14 15 16 18 18 19 19 19
8 9 10 11 13 13 10 8 6 5 7 11 12 13 14 14 12 11 11 12 9 4 2 4 4 3 3 3 6 10 12 13 14 16 17 17 16 16
5 7 11 12 15 15 11 10 10 7 9 12 12 13 12 12 13 11 12 12 10 5 3 4 4 4 3 2 2 4 7 11 13 14 15 14 13 12
4 4 6 13 16 16 12 10 12 11 10 10 10 9 8 8 7 7 8 11 9 5 6 5 4 3 4 3 1 1 2 3 6 8 11 11 11 11
5 4 5 13 15 16 11 13 16 13 9 9 9 8 7 7 6 7 8 6 5 7 9 7 5 5 5 4 3 1 1 2 3 3 6 8 8 9
3 5 7 12 13 12 14 17 13 9 9 10 9 6 5 7 8 8 8 8 7 6 8 6 7 6 5 5 5 3 2 1 2 3 3 3 2 3
4 5 8 11 9 11 13 11 8 8 10 9 8 6 5 6 8 8 8 8 7 5 7 8 9 9 5 4 5 4 3 4 3 3 3 2 2 2
6 4 4 6 7 7 8 8 8 8 8 7 8 8 7 7 6 5 5 6 6 5 4 5 8 9 7 6 5 4 3 2 3 4 4 2 1 3
8 6 6 7 8 9 9 8 7 8 8 9 9 8 8 7 6 4 5 7 8 6 6 5 6 6 5 6 4 5 3 2 2 3 3 3 2 3
7 7 7 8 7 8 8 7 6 7 8 9 9 8 8 7 6 6 6 6 6 5 4 4 4 5 5 2 2 1 5 3 3 2 2 3 4 4
5 7 7 7 8 8 8 7 7 8 8 8 8 8 7 7 6 7 6 6 5 4 4 3 4 5 6 6 4 2 4 5 4 3 2 1 1 2
6 6 6 6 7 8 8 8 9 8 8 7 7 8 7 7 7 7 7 9 6 5 5 5 4 6 4 5 3 1 3 6 7 5 4 3 1 1
5 5 5 6 7 7 8 8 8 8 8 7 7 7 7 7 8 8 8 8 6 5 5 4 4 4 3 4 5 4 3 3 5 9 9 9 6 5
4 4 4 6 6 7 8 9 10 8 8 7 7 7 7 7 7 8 8 8 7 6 5 4 3 3 3 4 5 4 4 3 2 3 6 15 19 19
Wind_Direction
232 236 238 240 235 236 232 226 246 275 278 243 245 348 88 76 78 88 97 112 119 119 118 121 121 121 121 126 163 202 231 241 241 237 234 233 231 229
233 233 239 241 238 236 234 230 226 239 255 225 222 206 143 117 99 95 95 96 95 100 101 100 98 96 91 88 84 85 91 137 215 222 225 231 233 232
241 232 235 234 234 237 237 237 233 227 246 244 213 164 137 126 110 96 90 86 89 92 95 93 90 87 86 84 80 75 73 75 82 95 106 113 120 144
245 237 237 235 233 235 236 239 235 221 223 227 205 163 139 135 121 108 96 93 91 93 93 92 89 87 84 82 80 78 74 73 74 78 83 87 90 90
241 237 234 226 230 231 232 235 232 227 210 194 188 159 135 134 122 108 102 96 92 92 88 87 86 84 82 80 80 79 77 76 75 76 79 83 84 85
244 238 226 218 220 223 228 226 218 210 194 181 170 153 138 131 127 125 113 98 95 91 86 85 83 81 79 79 79 79 79 79 80 79 79 79 81 81
249 236 222 215 211 211 211 208 202 201 185 175 163 148 143 144 137 130 122 111 89 90 95 80 77 73 67 70 77 81 83 84 86 86 85 83 82 82
245 234 221 211 206 204 202 198 197 192 182 174 163 155 149 143 135 137 134 131 115 107 100 86 74 76 62 66 74 81 85 88 90 91 90 88 86 84
240 226 215 205 190 183 178 175 182 177 173 169 161 154 151 150 144 142 141 127 123 145 116 92 68 73 59 66 74 81 87 93 96 95 94 92 90 87
240 225 210 193 187 174 162 150 138 136 146 147 147 144 143 145 144 141 132 114 103 108 102 104 82 72 61 50 64 78 85 95 103 104 101 97 94 91
251 229 207 193 185 169 157 148 133 117 107 117 121 125 130 135 137 132 132 133 130 129 104 107 118 91 62 42 49 71 82 95 108 117 114 107 100 91
256 228 208 193 175 166 161 154 146 138 127 117 112 113 121 131 138 142 145 143 139 139 159 117 140 125 90 34 35 60 76 87 101 117 125 118 107 96
246 224 206 185 172 168 162 158 151 140 130 124 120 117 114 119 126 132 140 146 145 143 161 134 142 129 123 131 78 51 85 90 92 98 117 122 116 110
226 203 187 173 172 166 158 146 140 132 127 125 124 124 123 123 125 129 131 128 137 150 161 149 140 147 126 121 134 109 84 105 114 108 114 115 108 106
202 179 169 169 166 162 149 143 138 130 130 128 128 125 119 120 115 109 102 100 86 98 147 156 138 132 127 134 141 141 136 147 145 140 146 146 152 131
166 146 153 161 159 147 144 140 134 134 134 133 129 118 107 107 116 121 122 115 96 62 50 103 131 130 122 124 132 141 151 159 161 163 158 167 186 176
146 137 148 154 149 142 136 130 128 128 126 127 128 124 119 116 112 102 109 106 109 112 85 60 68 84 101 127 124 136 142 139 154 151 141 152 226 213
146 148 156 158 155 151 147 137 132 138 141 140 139 137 136 132 120 105 109 117 121 121 119 117 108 91 63 35 72 136 131 140 141 135 134 139 211 243
147 153 158 161 153 149 146 141 141 146 144 145 146 145 140 134 129 127 124 123 126 128 130 130 122 117 119 132 318 135 153 153 137 129 153 165 199 231
153 157 160 157 151 149 148 144 140 142 143 145 147 146 144 141 141 144 145 143 139 133 130 137 147 148 157 169 185 222 185 161 156 166 181 178 251 291
154 153 159 155 152 150 148 145 146 149 151 148 150 151 151 147 150 155 155 156 144 143 158 184 197 158 121 105 108 260 258 212 193 175 171 158 203 297
150 155 154 155 154 150 147 146 147 149 151 149 152 154 153 152 154 154 155 157 159 159 165 164 135 125 125 149 180 210 244 255 232 222 214 197 177 199
157 158 160 161 156 149 148 150 151 154 155 152 151 152 150 149 152 153 157 158 155 152 143 145 146 144 154 167 182 202 225 234 236 247 256 241 233 236
Height
1465 1464 1463 1461 1459 1458 1457 1456 1456 1453 1451 1452 1452 1452 1453 1453 1454 1456 1457 1459 1462 1463 1465 1467 1470 1472 1473 1475 1478 1479 1481 1483 1485 1487 1489 1492 1495 1498
1459 1458 1457 1456 1454 1453 1452 1451 1450 1450 1448 1448 1449 1449 1450 1451 1452 1453 1454 1456 1458 1460 1462 1464 1465 1467 1469 1470 1472 1474 1475 1477 1478 1480 1482 1484 1487 1490
1452 1452 1451 1451 1449 1447 1446 1445 1444 1445 1444 1444 1445 1446 1447 1448 1449 1451 1452 1454 1456 1458 1459 1461 1462 1464 1465 1467 1468 1469 1471 1471 1473 1474 1476 1478 1480 1483
1445 1445 1445 1444 1443 1442 1440 1439 1439 1439 1439 1439 1441 1442 1444 1446 1448 1450 1451 1453 1454 1456 1458 1460 1461 1463 1464 1465 1466 1467 1468 1468 1469 1470 1472 1473 1476 1477
1438 1438 1438 1438 1437 1436 1435 1434 1433 1433 1434 1435 1436 1439 1441 1444 1446 1449 1451 1453 1454 1456 1458 1459 1461 1463 1464 1465 1466 1467 1468 1468 1469 1469 1470 1471 1473 1474
1430 1431 1431 1431 1431 1430 1429 1429 1428 1428 1429 1430 1433 1435 1438 1441 1444 1447 1450 1453 1455 1457 1459 1460 1462 1464 1466 1467 1467 1468 1469 1469 1470 1470 1471 1472 1473 1474
1423 1424 1424 1425 1425 1425 1424 1424 1424 1424 1424 1426 1429 1432 1435 1438 1442 1446 1449 1452 1455 1458 1460 1462 1464 1466 1467 1469 1470 1470 1471 1472 1472 1473 1473 1473 1474 1475
1416 1417 1418 1419 1419 1420 1420 1419 1420 1420 1420 1422 1425 1428 1432 1436 1440 1444 1448 1451 1455 1460 1461 1464 1466 1468 1469 1471 1472 1473 1474 1474 1475 1475 1476 1476 1477 1478
1409 1410 1411 1412 1414 1415 1415 1415 1416 1416 1418 1420 1422 1426 1430 1433 1438 1443 1448 1451 1454 1459 1463 1464 1468 1470 1471 1473 1474 1475 1476 1477 1477 1478 1478 1479 1479 1480
1403 1403 1405 1406 1408 1410 1411 1412 1413 1414 1415 1418 1421 1425 1429 1434 1438 1443 1447 1452 1457 1461 1464 1466 1470 1472 1474 1475 1476 1477 1478 1479 1479 1480 1481 1481 1482 1483
1396 1397 1398 1400 1403 1406 1408 1410 1411 1413 1415 1418 1421 1425 1430 1434 1439 1443 1448 1452 1457 1462 1466 1467 1471 1474 1476 1478 1479 1480 1480 1481 1482 1483 1484 1485 1485 1486
1390 1390 1392 1395 1398 1402 1405 1407 1409 1412 1415 1418 1422 1426 1431 1436 1440 1444 1447 1452 1456 1462 1467 1469 1472 1474 1478 1480 1481 1482 1483 1484 1485 1486 1487 1488 1488 1489
1384 1385 1386 1391 1395 1399 1403 1406 1409 1412 1415 1419 1423 1427 1432 1437 1441 1446 1450 1454 1457 1461 1466 1469 1472 1475 1477 1481 1483 1484 1486 1486 1487 1488 1489 1490 1491 1491
1379 1380 1382 1387 1392 1397 1401 1405 1409 1413 1416 1420 1424 1428 1433 1438 1443 1447 1452 1457 1460 1463 1467 1470 1472 1475 1477 1480 1483 1485 1487 1488 1489 1490 1491 1492 1492 1492
1375 1376 1379 1384 1390 1395 1400 1405 1409 1413 1416 1421 1425 1430 1435 1440 1444 1449 1453 1458 1462 1465 1468 1471 1474 1476 1478 1480 1482 1485 1487 1488 1490 1491 1492 1493 1493 1493
1372 1374 1377 1382 1388 1394 1399 1405 1409 1414 1418 1422 1427 1432 1436 1441 1445 1449 1454 1458 1462 1465 1469 1472 1475 1477 1479 1481 1483 1485 1487 1488 1489 1491 1492 1493 1493 1493
1370 1372 1375 1380 1387 1393 1399 1405 1410 1415 1420 1425 1429 1433 1438 1442 1447 1451 1455 1458 1462 1465 1468 1472 1475 1478 1481 1482 1483 1485 1487 1488 1489 1490 1491 1492 1493 1493
1368 1370 1374 1380 1386 1393 1399 1405 1411 1417 1422 1426 1430 1434 1439 1443 1447 1452 1456 1459 1462 1466 1469 1472 1475 1478 1481 1483 1485 1486 1487 1488 1489 1490 1491 1491 1492 1492
1366 1370 1375 1381 1388 1395 1401 1407 1412 1418 1423 1427 1431 1436 1440 1444 1448 1452 1456 1460 1463 1467 1470 1473 1476 1478 1480 1482 1484 1486 1487 1487 1488 1489 1490 1490 1490 1491
1366 1371 1377 1383 1390 1397 1403 1409 1414 1419 1424 1428 1433 1437 1441 1445 1449 1453 1457 1460 1464 1467 1470 1474 1476 1479 1480 1482 1484 1485 1486 1487 1488 1489 1489 1489 1489 1489
1368 1373 1380 1387 1393 1400 1406 1411 1416 1420 1425 1430 1434 1438 1442 1446 1450 1454 1457 1461 1464 1467 1470 1473 1476 1478 1480 1482 1484 1485 1486 1487 1487 1488 1488 1488 1488 1487
1370 1377 1383 1390 1396 1402 1407 1412 1417 1422 1426 1431 1435 1439 1443 1447 1451 1454 1458 1461 1464 1467 1470 1472 1475 1477 1479 1481 1482 1484 1485 1486 1486 1486 1487 1487 1486 1484
1375 1381 1387 1393 1398 1404 1409 1414 1418 1423 1427 1431 1436 1440 1444 1447 1451 1455 1458 1461 1464 1467 1469 1471 1473 1476 1478 1480 1481 1482 1483 1484 1484 1484 1484 1484 1483 1482